|
NORAD ID: 25668 Int'l Code: 1992-060E
Perigee: 277.6 km
Apogee: 19,812.1 km
Inclination: 7.4 °
Period: 348.9 minutes
Semi major axis: 16415 km
Launch date: September 10, 1992
Source: France (FR)
Note: This is SATELLITE DEBRIS
Two Line Element Set (TLE):
1 25668U 92060E 13142.44482552 .00010572 00000-0 16527-2 0 9245
2 25668 007.3993 219.7307 5949877 262.9022 060.2050 04.12768747230252
Source:
NASA's NSSDC Master Catalog entry for ARIANE 44LP DEB
|